sat.trackr.live / text

‹ back to catalog

STARLINK-35598

NORAD 66509 · 2025-263AA

PAYLOAD ACTIVE UNKNOWN

§ Identity

Operator
Country
US
Launch date
2025-11-15
Launch site
AFETR
Launch vehicle
Mass (kg)
RCS (m²)

Purposes: comms

External: N2YO · Heavens-Above · Gunter

§ Orbital elements

Epoch: 2026-09-20T11:18:47.316672Z

Period
94.27 min
Inclination
42.9992°
Eccentricity
0.0000936
Mean motion
15.27590998 rev/d
Perigee alt
482.4 km
Apogee alt
483.7 km
Semi-major
6,861.2 km
B*
5.9417e-4
RAAN
331.0627°
Arg perigee
262.8171°
Mean anomaly
97.2574°
Rev number
4,868

§ Raw data

STARLINK-355981 66509U 25263AA  26263.47138098  .00016129  00000+0  59417-3 0  99902 66509  42.9992 331.0627 0000936 262.8171  97.2574 15.27590998 48685

JSON: /api/v1/satellites/66509 · /tle

For live sub-satellite position, see the globe view (requires WebGL).

§ Visibility from observer

Set your observer location to see the next 7 days of passes ≥ 10°. The values pass through the URL so the page stays shareable.

No JS? Fill the form by hand. The geolocation button needs JavaScript.